When you browse on this site, cookies collect data to enhance your experience and personalize the content and advertising you see.
Visit our Privacy Policy to learn more. By continuing to use the site, you agree to this use of cookies and data.
  • Em Portugal
  • Lista de países
  • Para 7 dias
  • Temperatura da água
  • Mapa do tempo
  • Widgets de tempo
  • user-avatar
    Iniciar Sessão

    Previsão horária em Una

    Hoje, 31 Maio, Domingo

    Tempo Temperatura Precipitação Vento Pressão Humidade
    00:00 +8°C° 0 mm 0 m/s 584 mmHg 83%
    01:00 +7°C° 0 mm 0 m/s 584 mmHg 86%
    02:00 +8°C° 0 mm 1 m/s 584 mmHg 89%
    03:00 +8°C° 0 mm 1 m/s 584 mmHg 91%
    04:00 +9°C° 0 mm 1 m/s 585 mmHg 91%
    05:00 +9°C° 0 mm 1 m/s 585 mmHg 90%
    06:00 +10°C° 0 mm 1 m/s 586 mmHg 90%
    07:00 +11°C° 0 mm 1 m/s 586 mmHg 85%
    08:00 +12°C° 0 mm 2 m/s 587 mmHg 80%
    09:00 +13°C° 0 mm 3 m/s 588 mmHg 72%
    10:00 +13°C° 0 mm 3 m/s 588 mmHg 69%
    11:00 +14°C° 0 mm 3 m/s 588 mmHg 66%
    12:00 +14°C° 0 mm 3 m/s 588 mmHg 64%
    13:00 +14°C° 0 mm 3 m/s 588 mmHg 63%
    14:00 +14°C° 0 mm 3 m/s 588 mmHg 63%
    15:00 +14°C° 0 mm 3 m/s 587 mmHg 64%
    16:00 +14°C° 0 mm 3 m/s 587 mmHg 68%
    17:00 +14°C° 0 mm 2 m/s 586 mmHg 71%
    18:00 +13°C° 0 mm 2 m/s 586 mmHg 74%
    19:00 +10°C° 0 mm 2 m/s 585 mmHg 79%
    20:00 +9°C° 0 mm 2 m/s 585 mmHg 84%
    21:00 +8°C° 0 mm 1 m/s 584 mmHg 90%
    22:00 +8°C° 0 mm 1 m/s 584 mmHg 88%
    23:00 +7°C° 0 mm 1 m/s 583 mmHg 86%

    Amanhã, 1 Junho, Segunda-feira

    Tempo Temperatura Precipitação Vento Pressão Humidade
    00:00 +7°C° 0 mm 1 m/s 583 mmHg 84%
    01:00 +7°C° 0 mm 1 m/s 583 mmHg 79%
    02:00 +7°C° 0 mm 1 m/s 583 mmHg 73%
    03:00 +6°C° 0 mm 1 m/s 583 mmHg 67%
    04:00 +8°C° 0 mm 1 m/s 583 mmHg 63%
    05:00 +10°C° 0 mm 1 m/s 584 mmHg 58%
    06:00 +11°C° 0 mm 1 m/s 585 mmHg 54%
    07:00 +13°C° 0 mm 1 m/s 586 mmHg 53%
    08:00 +14°C° 0 mm 2 m/s 586 mmHg 52%
    09:00 +16°C° 0 mm 2 m/s 587 mmHg 51%
    10:00 +17°C° 0 mm 3 m/s 587 mmHg 49%
    11:00 +18°C° 0 mm 3 m/s 587 mmHg 47%
    12:00 +18°C° 0 mm 3 m/s 587 mmHg 46%
    13:00 +18°C° 0 mm 3 m/s 586 mmHg 44%
    14:00 +18°C° 0 mm 3 m/s 586 mmHg 43%
    15:00 +18°C° 0 mm 3 m/s 586 mmHg 42%
    16:00 +17°C° 0 mm 3 m/s 585 mmHg 47%
    17:00 +16°C° 0 mm 2 m/s 584 mmHg 52%
    18:00 +15°C° 0 mm 2 m/s 584 mmHg 58%
    19:00 +14°C° 0 mm 2 m/s 583 mmHg 61%
    20:00 +12°C° 0 mm 2 m/s 582 mmHg 64%
    21:00 +9°C° 0 mm 2 m/s 581 mmHg 67%
    22:00 +9°C° 0 mm 2 m/s 581 mmHg 65%
    23:00 +8°C° 0 mm 2 m/s 581 mmHg 63%

    Depois de amanhã, 2 Junho, Terça-feira

    Tempo Temperatura Precipitação Vento Pressão Humidade
    00:00 +8°C° 0 mm 2 m/s 581 mmHg 61%
    01:00 +8°C° 0 mm 2 m/s 580 mmHg 61%
    02:00 +8°C° 0 mm 2 m/s 580 mmHg 60%
    03:00 +8°C° 0 mm 2 m/s 580 mmHg 60%
    04:00 +9°C° 0 mm 2 m/s 581 mmHg 59%
    05:00 +12°C° 0 mm 2 m/s 582 mmHg 57%
    06:00 +13°C° 0 mm 1 m/s 583 mmHg 56%
    07:00 +15°C° 0 mm 2 m/s 583 mmHg 49%
    08:00 +17°C° 0 mm 3 m/s 584 mmHg 43%
    09:00 +19°C° 0 mm 3 m/s 585 mmHg 36%
    10:00 +19°C° 0 mm 4 m/s 585 mmHg 35%
    11:00 +20°C° 0 mm 4 m/s 585 mmHg 34%
    12:00 +20°C° 0 mm 5 m/s 585 mmHg 34%
    13:00 +20°C° 0 mm 4 m/s 585 mmHg 34%
    14:00 +20°C° 0 mm 3 m/s 585 mmHg 35%
    15:00 +20°C° 0 mm 3 m/s 584 mmHg 36%
    16:00 +16°C° 1.9 mm 3 m/s 583 mmHg 53%
    17:00 +12°C° 1.9 mm 4 m/s 581 mmHg 71%
    18:00 +7°C° 1.9 mm 4 m/s 580 mmHg 88%
    19:00 +8°C° 0.9 mm 3 m/s 580 mmHg 86%
    20:00 +9°C° 0.9 mm 3 m/s 580 mmHg 84%
    21:00 +9°C° 0.9 mm 2 m/s 580 mmHg 82%
    22:00 +9°C° 0.3 mm 2 m/s 580 mmHg 79%
    23:00 +9°C° 0.3 mm 2 m/s 580 mmHg 77%

    3 Junho, Quarta-feira

    Tempo Temperatura Precipitação Vento Pressão Humidade
    00:00 +9°C° 0.3 mm 2 m/s 579 mmHg 75%
    01:00 +9°C° 0.1 mm 2 m/s 579 mmHg 74%
    02:00 +8°C° 0.1 mm 2 m/s 579 mmHg 72%
    03:00 +8°C° 0.1 mm 2 m/s 579 mmHg 71%
    04:00 +10°C° 0 mm 2 m/s 579 mmHg 71%
    05:00 +12°C° 0 mm 2 m/s 580 mmHg 70%
    06:00 +13°C° 0 mm 2 m/s 581 mmHg 70%
    07:00 +15°C° 0 mm 2 m/s 581 mmHg 61%
    08:00 +17°C° 0 mm 3 m/s 582 mmHg 52%
    09:00 +18°C° 0 mm 3 m/s 583 mmHg 44%
    10:00 +19°C° 0 mm 3 m/s 583 mmHg 40%
    11:00 +19°C° 0 mm 3 m/s 583 mmHg 36%
    12:00 +20°C° 0 mm 3 m/s 583 mmHg 33%
    13:00 +20°C° 0 mm 3 m/s 583 mmHg 33%
    14:00 +19°C° 0 mm 3 m/s 583 mmHg 34%
    15:00 +19°C° 0 mm 3 m/s 583 mmHg 34%
    16:00 +18°C° 0 mm 3 m/s 582 mmHg 41%
    17:00 +17°C° 0 mm 3 m/s 582 mmHg 48%
    18:00 +15°C° 0 mm 2 m/s 582 mmHg 54%
    19:00 +14°C° 0 mm 2 m/s 581 mmHg 55%
    20:00 +11°C° 0 mm 3 m/s 580 mmHg 56%
    21:00 +9°C° 0 mm 3 m/s 580 mmHg 57%
    22:00 +9°C° 0 mm 2 m/s 580 mmHg 60%
    23:00 +9°C° 0 mm 2 m/s 580 mmHg 62%

    4 Junho, Quinta-feira

    Tempo Temperatura Precipitação Vento Pressão Humidade
    00:00 +9°C° 0 mm 2 m/s 580 mmHg 65%
    01:00 +8°C° 0 mm 2 m/s 580 mmHg 68%
    02:00 +8°C° 0 mm 2 m/s 580 mmHg 71%
    03:00 +7°C° 0 mm 2 m/s 581 mmHg 75%
    04:00 +8°C° 0 mm 2 m/s 582 mmHg 72%
    05:00 +9°C° 0 mm 2 m/s 582 mmHg 70%
    06:00 +12°C° 0 mm 1 m/s 583 mmHg 67%
    07:00 +13°C° 0 mm 2 m/s 584 mmHg 60%
    08:00 +14°C° 0 mm 2 m/s 585 mmHg 52%
    09:00 +16°C° 0 mm 2 m/s 586 mmHg 44%
    10:00 +16°C° 0 mm 3 m/s 586 mmHg 45%
    11:00 +17°C° 0 mm 3 m/s 586 mmHg 46%
    12:00 +17°C° 0 mm 3 m/s 587 mmHg 47%
    13:00 +17°C° 0 mm 3 m/s 587 mmHg 46%
    14:00 +17°C° 0 mm 3 m/s 586 mmHg 46%
    15:00 +17°C° 0 mm 3 m/s 586 mmHg 45%
    16:00 +16°C° 0 mm 3 m/s 586 mmHg 51%
    17:00 +14°C° 0 mm 3 m/s 586 mmHg 56%
    18:00 +14°C° 0 mm 2 m/s 585 mmHg 62%
    19:00 +13°C° 0 mm 2 m/s 584 mmHg 67%
    20:00 +10°C° 0 mm 2 m/s 584 mmHg 73%
    21:00 +8°C° 0 mm 2 m/s 583 mmHg 78%
    22:00 +8°C° 0 mm 2 m/s 583 mmHg 75%
    23:00 +9°C° 0 mm 1 m/s 583 mmHg 71%

    5 Junho, Sexta-feira

    Tempo Temperatura Precipitação Vento Pressão Humidade
    00:00 +9°C° 0 mm 1 m/s 583 mmHg 68%
    01:00 +8°C° 0 mm 1 m/s 583 mmHg 69%
    02:00 +7°C° 0 mm 2 m/s 583 mmHg 69%
    03:00 +7°C° 0 mm 2 m/s 583 mmHg 70%
    04:00 +9°C° 0 mm 1 m/s 584 mmHg 69%
    05:00 +11°C° 0 mm 1 m/s 585 mmHg 69%
    06:00 +12°C° 0 mm 1 m/s 586 mmHg 69%
    07:00 +13°C° 0.1 mm 1 m/s 587 mmHg 64%
    08:00 +14°C° 0.1 mm 2 m/s 588 mmHg 60%
    09:00 +16°C° 0.1 mm 3 m/s 588 mmHg 56%
    10:00 +16°C° 0.2 mm 3 m/s 589 mmHg 56%
    11:00 +16°C° 0.2 mm 3 m/s 589 mmHg 55%
    12:00 +16°C° 0.2 mm 3 m/s 589 mmHg 55%
    13:00 +16°C° 0.2 mm 3 m/s 589 mmHg 56%
    14:00 +14°C° 0.2 mm 3 m/s 589 mmHg 56%
    15:00 +14°C° 0.2 mm 3 m/s 588 mmHg 57%
    16:00 +13°C° 0.3 mm 3 m/s 588 mmHg 63%
    17:00 +12°C° 0.3 mm 3 m/s 588 mmHg 69%
    18:00 +12°C° 0.3 mm 2 m/s 588 mmHg 75%
    19:00 +10°C° 0.3 mm 2 m/s 587 mmHg 81%
    20:00 +9°C° 0.3 mm 1 m/s 587 mmHg 87%
    21:00 +8°C° 0.3 mm 1 m/s 587 mmHg 93%
    22:00 +8°C° 0.3 mm 1 m/s 587 mmHg 94%
    23:00 +8°C° 0.3 mm 1 m/s 587 mmHg 95%
    Mostrar mais